QPF
0.01 0.00 0.00 0.00 0.00 0.00 0.00 0.00 0.00 0.00 0.00 0.00 0.00 0.00 0.00 0.00 0.00 0.00 0.00 0.00 0.00 0.00 0.00 0.00 0.00 0.01 0.01 0.01 0.01 0.00 0.00 0.00 0.01 0.01 0.00 0.00 0.00 0.00 0.00 0.00 0.00 0.00 0.00
0.00 0.00 0.00 0.00 0.00 0.00 0.00 0.00 0.00 0.00 0.00 0.00 0.00 0.00 0.00 0.00 0.00 0.00 0.00 0.00 0.00 0.00 0.00 0.00 0.00 0.00 0.00 0.00 0.00 0.00 0.00 0.01 0.01 0.01 0.01 0.01 0.01 0.01 0.01 0.01 0.01 0.00 0.00
0.00 0.00 0.00 0.00 0.00 0.00 0.00 0.00 0.00 0.00 0.00 0.00 0.00 0.00 0.00 0.00 0.00 0.00 0.00 0.00 0.00 0.00 0.00 0.00 0.00 0.00 0.00 0.00 0.00 0.00 0.01 0.01 0.02 0.02 0.02 0.01 0.02 0.02 0.02 0.02 0.02 0.00 0.00
0.00 0.00 0.00 0.00 0.00 0.00 0.00 0.00 0.00 0.00 0.00 0.00 0.00 0.00 0.00 0.00 0.00 0.00 0.00 0.00 0.00 0.00 0.00 0.00 0.00 0.00 0.00 0.00 0.00 0.00 0.01 0.01 0.02 0.03 0.03 0.02 0.01 0.01 0.01 0.01 0.01 0.00 0.00
0.00 0.00 0.00 0.00 0.00 0.00 0.00 0.00 0.00 0.00 0.00 0.00 0.00 0.00 0.00 0.00 0.00 0.00 0.00 0.00 0.00 0.00 0.00 0.00 0.00 0.00 0.00 0.00 0.00 0.00 0.01 0.02 0.04 0.05 0.05 0.04 0.02 0.01 0.01 0.01 0.00 0.00 0.00
0.00 0.00 0.00 0.00 0.00 0.00 0.00 0.00 0.00 0.00 0.00 0.00 0.01 0.00 0.00 0.00 0.00 0.00 0.00 0.00 0.00 0.00 0.00 0.00 0.00 0.00 0.00 0.00 0.00 0.00 0.01 0.03 0.04 0.06 0.08 0.09 0.04 0.02 0.01 0.01 0.00 0.00 0.00
0.00 0.00 0.00 0.00 0.00 0.00 0.00 0.00 0.00 0.00 0.01 0.01 0.01 0.01 0.01 0.00 0.00 0.00 0.00 0.00 0.00 0.00 0.00 0.00 0.00 0.00 0.00 0.00 0.00 0.00 0.01 0.03 0.04 0.06 0.07 0.07 0.06 0.04 0.02 0.01 0.01 0.00 0.00
0.00 0.00 0.00 0.00 0.00 0.00 0.00 0.00 0.00 0.01 0.01 0.01 0.01 0.01 0.01 0.01 0.01 0.01 0.00 0.00 0.00 0.00 0.00 0.00 0.00 0.00 0.00 0.00 0.00 0.00 0.01 0.02 0.03 0.07 0.09 0.12 0.07 0.05 0.03 0.02 0.01 0.01 0.01
0.00 0.00 0.00 0.00 0.00 0.00 0.00 0.00 0.00 0.00 0.00 0.00 0.01 0.01 0.01 0.01 0.01 0.01 0.01 0.01 0.00 0.00 0.00 0.00 0.00 0.00 0.00 0.00 0.00 0.00 0.01 0.02 0.03 0.06 0.10 0.16 0.09 0.06 0.03 0.02 0.01 0.01 0.01
0.01 0.00 0.00 0.00 0.00 0.00 0.00 0.00 0.00 0.00 0.00 0.00 0.01 0.01 0.01 0.01 0.01 0.01 0.01 0.00 0.00 0.00 0.00 0.00 0.00 0.00 0.00 0.00 0.00 0.00 0.00 0.01 0.03 0.04 0.08 0.10 0.11 0.07 0.04 0.02 0.01 0.01 0.00
0.01 0.00 0.00 0.00 0.00 0.00 0.00 0.00 0.00 0.00 0.00 0.00 0.00 0.01 0.01 0.00 0.00 0.01 0.00 0.01 0.00 0.00 0.00 0.00 0.00 0.00 0.00 0.00 0.00 0.00 0.00 0.01 0.02 0.03 0.07 0.08 0.09 0.06 0.04 0.03 0.02 0.01 0.00
0.04 0.01 0.01 0.00 0.00 0.00 0.00 0.00 0.00 0.00 0.00 0.00 0.00 0.00 0.00 0.00 0.00 0.00 0.01 0.02 0.01 0.00 0.00 0.00 0.00 0.00 0.00 0.00 0.00 0.00 0.00 0.01 0.02 0.04 0.05 0.08 0.08 0.06 0.05 0.04 0.02 0.01 0.01
0.07 0.03 0.02 0.02 0.01 0.00 0.00 0.00 0.00 0.00 0.00 0.00 0.00 0.00 0.00 0.01 0.02 0.02 0.02 0.02 0.01 0.01 0.00 0.00 0.01 0.01 0.01 0.01 0.01 0.01 0.01 0.02 0.04 0.04 0.03 0.05 0.07 0.07 0.07 0.05 0.03 0.02 0.02
0.18 0.10 0.07 0.05 0.03 0.02 0.03 0.01 0.00 0.00 0.00 0.00 0.01 0.01 0.01 0.03 0.04 0.04 0.04 0.02 0.01 0.01 0.01 0.00 0.01 0.02 0.03 0.02 0.03 0.03 0.04 0.04 0.05 0.04 0.04 0.05 0.06 0.08 0.08 0.07 0.05 0.04 0.03
0.33 0.22 0.14 0.11 0.09 0.06 0.07 0.08 0.02 0.01 0.01 0.01 0.02 0.02 0.03 0.03 0.04 0.06 0.05 0.03 0.02 0.02 0.01 0.01 0.02 0.04 0.05 0.04 0.05 0.05 0.05 0.05 0.05 0.05 0.06 0.07 0.09 0.09 0.09 0.08 0.07 0.06 0.05
0.35 0.24 0.15 0.14 0.11 0.08 0.06 0.06 0.04 0.03 0.03 0.04 0.07 0.05 0.05 0.05 0.06 0.06 0.04 0.02 0.02 0.02 0.02 0.03 0.02 0.02 0.03 0.04 0.04 0.04 0.04 0.07 0.07 0.09 0.10 0.12 0.14 0.11 0.09 0.09 0.08 0.07 0.06
0.31 0.25 0.20 0.15 0.16 0.10 0.04 0.04 0.07 0.08 0.11 0.08 0.09 0.07 0.11 0.06 0.05 0.05 0.03 0.03 0.02 0.02 0.02 0.03 0.02 0.02 0.02 0.04 0.04 0.05 0.07 0.08 0.10 0.10 0.13 0.14 0.12 0.10 0.09 0.10 0.09 0.09 0.08
0.43 0.27 0.25 0.18 0.25 0.18 0.09 0.07 0.07 0.08 0.11 0.09 0.07 0.07 0.09 0.07 0.05 0.04 0.04 0.04 0.03 0.03 0.03 0.03 0.03 0.02 0.02 0.03 0.05 0.04 0.06 0.09 0.10 0.11 0.13 0.14 0.12 0.11 0.11 0.11 0.11 0.11 0.09
0.53 0.44 0.40 0.29 0.30 0.23 0.14 0.10 0.11 0.12 0.12 0.12 0.12 0.10 0.07 0.07 0.07 0.05 0.05 0.03 0.03 0.03 0.04 0.03 0.04 0.03 0.03 0.03 0.04 0.05 0.06 0.08 0.10 0.12 0.14 0.13 0.12 0.14 0.13 0.12 0.13 0.12 0.11
0.48 0.60 0.62 0.39 0.34 0.28 0.19 0.15 0.17 0.18 0.16 0.16 0.17 0.18 0.14 0.10 0.08 0.06 0.05 0.04 0.04 0.04 0.04 0.04 0.04 0.04 0.04 0.05 0.07 0.08 0.09 0.10 0.12 0.13 0.15 0.14 0.13 0.14 0.16 0.18 0.17 0.14 0.12
0.81 0.70 0.71 0.61 0.52 0.39 0.26 0.19 0.18 0.19 0.19 0.21 0.22 0.17 0.16 0.15 0.13 0.11 0.10 0.08 0.06 0.05 0.04 0.05 0.05 0.05 0.06 0.07 0.07 0.07 0.07 0.09 0.12 0.12 0.13 0.13 0.12 0.11 0.14 0.18 0.16 0.12 0.09
0.86 0.79 0.76 0.60 0.54 0.49 0.37 0.32 0.27 0.25 0.23 0.23 0.25 0.25 0.22 0.20 0.19 0.15 0.11 0.09 0.08 0.07 0.06 0.06 0.06 0.07 0.08 0.07 0.06 0.07 0.09 0.09 0.08 0.07 0.07 0.07 0.07 0.06 0.07 0.09 0.08 0.10 0.10
0.50 0.55 0.56 0.56 0.55 0.58 0.55 0.51 0.44 0.33 0.25 0.22 0.22 0.24 0.25 0.23 0.20 0.17 0.13 0.10 0.08 0.07 0.07 0.07 0.08 0.08 0.07 0.07 0.08 0.09 0.07 0.06 0.05 0.03 0.03 0.03 0.04 0.05 0.07 0.08 0.08 0.07 0.06
0.28 0.39 0.45 0.46 0.43 0.47 0.50 0.45 0.40 0.34 0.31 0.28 0.24 0.21 0.20 0.17 0.15 0.13 0.11 0.10 0.09 0.07 0.06 0.07 0.06 0.06 0.06 0.06 0.06 0.05 0.06 0.06 0.06 0.05 0.04 0.04 0.04 0.05 0.06 0.07 0.09 0.08 0.07
0.19 0.24 0.29 0.35 0.39 0.40 0.49 0.51 0.46 0.42 0.35 0.27 0.20 0.15 0.12 0.09 0.07 0.06 0.06 0.06 0.05 0.04 0.04 0.05 0.05 0.04 0.04 0.04 0.04 0.04 0.04 0.05 0.05 0.05 0.05 0.05 0.04 0.05 0.05 0.05 0.05 0.05 0.05
0.14 0.16 0.22 0.26 0.31 0.37 0.47 0.55 0.57 0.53 0.44 0.33 0.23 0.15 0.10 0.08 0.06 0.05 0.05 0.04 0.03 0.02 0.02 0.02 0.03 0.03 0.03 0.03 0.03 0.02 0.02 0.03 0.03 0.04 0.05 0.04 0.04 0.04 0.04 0.05 0.05 0.05 0.05
MSLP
1011.84 1011.51 1011.44 1011.59 1011.89 1012.27 1012.65 1012.98 1013.23 1013.40 1013.53 1013.66 1013.84 1014.07 1014.38 1014.73 1015.08 1015.42 1015.71 1015.93 1016.11 1016.26 1016.40 1016.56 1016.75 1016.94 1017.13 1017.29 1017.40 1017.46 1017.48 1017.47 1017.46 1017.49 1017.56 1017.68 1017.84 1018.02 1018.19 1018.34 1018.46 1018.54 1018.60
1011.22 1011.09 1011.20 1011.53 1011.97 1012.44 1012.86 1013.19 1013.42 1013.58 1013.70 1013.85 1014.07 1014.36 1014.72 1015.11 1015.49 1015.81 1016.06 1016.24 1016.36 1016.46 1016.58 1016.74 1016.93 1017.15 1017.36 1017.54 1017.65 1017.70 1017.70 1017.67 1017.65 1017.66 1017.73 1017.86 1018.02 1018.20 1018.38 1018.53 1018.65 1018.74 1018.82
1010.40 1010.47 1010.79 1011.30 1011.90 1012.48 1012.97 1013.33 1013.57 1013.72 1013.86 1014.03 1014.28 1014.62 1015.02 1015.43 1015.80 1016.10 1016.31 1016.44 1016.51 1016.58 1016.68 1016.83 1017.03 1017.26 1017.48 1017.66 1017.78 1017.82 1017.81 1017.77 1017.75 1017.77 1017.85 1017.99 1018.17 1018.37 1018.56 1018.72 1018.85 1018.95 1019.05
1009.54 1009.80 1010.31 1011.00 1011.74 1012.43 1012.99 1013.40 1013.66 1013.83 1013.98 1014.18 1014.45 1014.81 1015.23 1015.64 1016.01 1016.28 1016.45 1016.53 1016.58 1016.62 1016.71 1016.86 1017.06 1017.30 1017.53 1017.71 1017.82 1017.86 1017.85 1017.82 1017.82 1017.86 1017.96 1018.13 1018.33 1018.54 1018.73 1018.90 1019.04 1019.17 1019.29
1008.83 1009.24 1009.90 1010.72 1011.57 1012.34 1012.97 1013.41 1013.70 1013.89 1014.06 1014.27 1014.56 1014.94 1015.35 1015.76 1016.11 1016.36 1016.50 1016.57 1016.59 1016.63 1016.72 1016.87 1017.09 1017.32 1017.55 1017.73 1017.84 1017.88 1017.88 1017.87 1017.89 1017.96 1018.10 1018.28 1018.50 1018.72 1018.92 1019.09 1019.23 1019.36 1019.50
1008.44 1008.94 1009.69 1010.57 1011.48 1012.29 1012.94 1013.40 1013.70 1013.91 1014.09 1014.32 1014.62 1015.00 1015.41 1015.81 1016.14 1016.38 1016.51 1016.57 1016.60 1016.65 1016.75 1016.92 1017.13 1017.38 1017.60 1017.77 1017.87 1017.92 1017.93 1017.94 1017.99 1018.10 1018.26 1018.46 1018.69 1018.90 1019.09 1019.25 1019.38 1019.51 1019.65
1008.44 1008.98 1009.74 1010.62 1011.52 1012.31 1012.95 1013.40 1013.70 1013.91 1014.10 1014.34 1014.65 1015.03 1015.44 1015.83 1016.15 1016.38 1016.51 1016.58 1016.63 1016.70 1016.82 1017.00 1017.23 1017.47 1017.68 1017.84 1017.94 1017.99 1018.02 1018.05 1018.12 1018.25 1018.43 1018.64 1018.85 1019.05 1019.22 1019.35 1019.46 1019.58 1019.71
1008.80 1009.32 1010.03 1010.86 1011.69 1012.42 1013.00 1013.42 1013.70 1013.91 1014.11 1014.36 1014.68 1015.07 1015.47 1015.85 1016.16 1016.39 1016.53 1016.61 1016.68 1016.77 1016.91 1017.11 1017.34 1017.57 1017.78 1017.93 1018.03 1018.08 1018.11 1018.16 1018.24 1018.38 1018.55 1018.75 1018.95 1019.12 1019.26 1019.36 1019.45 1019.55 1019.68
1009.40 1009.86 1010.49 1011.22 1011.94 1012.58 1013.08 1013.45 1013.71 1013.92 1014.14 1014.41 1014.74 1015.13 1015.53 1015.90 1016.20 1016.42 1016.56 1016.65 1016.74 1016.85 1017.00 1017.20 1017.43 1017.66 1017.86 1018.00 1018.08 1018.13 1018.16 1018.21 1018.29 1018.42 1018.58 1018.76 1018.93 1019.07 1019.18 1019.26 1019.34 1019.44 1019.58
1010.03 1010.43 1010.97 1011.59 1012.20 1012.73 1013.16 1013.49 1013.73 1013.94 1014.18 1014.47 1014.83 1015.22 1015.62 1015.98 1016.26 1016.47 1016.60 1016.69 1016.77 1016.89 1017.04 1017.25 1017.47 1017.68 1017.87 1017.99 1018.07 1018.11 1018.13 1018.17 1018.23 1018.34 1018.47 1018.62 1018.75 1018.87 1018.96 1019.05 1019.14 1019.26 1019.42
1010.50 1010.86 1011.33 1011.86 1012.37 1012.83 1013.20 1013.49 1013.73 1013.96 1014.22 1014.55 1014.92 1015.33 1015.72 1016.06 1016.33 1016.51 1016.62 1016.70 1016.77 1016.88 1017.03 1017.22 1017.43 1017.63 1017.80 1017.91 1017.97 1018.00 1018.01 1018.02 1018.06 1018.13 1018.23 1018.33 1018.44 1018.54 1018.63 1018.73 1018.86 1019.02 1019.23
1010.69 1011.04 1011.47 1011.95 1012.41 1012.81 1013.15 1013.43 1013.68 1013.95 1014.25 1014.60 1015.00 1015.41 1015.80 1016.12 1016.36 1016.51 1016.60 1016.66 1016.72 1016.81 1016.95 1017.13 1017.33 1017.52 1017.67 1017.77 1017.81 1017.82 1017.80 1017.79 1017.79 1017.82 1017.87 1017.94 1018.02 1018.11 1018.22 1018.35 1018.52 1018.74 1019.01
1010.58 1010.95 1011.39 1011.85 1012.29 1012.68 1013.01 1013.31 1013.59 1013.89 1014.23 1014.62 1015.04 1015.45 1015.82 1016.13 1016.34 1016.47 1016.54 1016.58 1016.63 1016.71 1016.84 1017.01 1017.20 1017.37 1017.51 1017.60 1017.63 1017.61 1017.57 1017.51 1017.47 1017.45 1017.46 1017.49 1017.55 1017.64 1017.77 1017.94 1018.16 1018.44 1018.77
1010.24 1010.67 1011.14 1011.61 1012.06 1012.46 1012.81 1013.13 1013.45 1013.79 1014.17 1014.58 1015.01 1015.42 1015.78 1016.07 1016.26 1016.37 1016.43 1016.47 1016.52 1016.60 1016.73 1016.90 1017.08 1017.25 1017.38 1017.45 1017.46 1017.42 1017.35 1017.26 1017.17 1017.11 1017.07 1017.07 1017.11 1017.19 1017.33 1017.53 1017.80 1018.12 1018.48
1009.83 1010.30 1010.81 1011.31 1011.78 1012.20 1012.58 1012.93 1013.28 1013.65 1014.06 1014.49 1014.92 1015.33 1015.67 1015.95 1016.13 1016.25 1016.31 1016.36 1016.43 1016.53 1016.67 1016.84 1017.02 1017.18 1017.30 1017.36 1017.35 1017.29 1017.19 1017.07 1016.94 1016.84 1016.77 1016.73 1016.75 1016.82 1016.96 1017.17 1017.45 1017.77 1018.14
1009.50 1010.02 1010.55 1011.06 1011.54 1011.97 1012.37 1012.74 1013.12 1013.52 1013.93 1014.37 1014.80 1015.19 1015.53 1015.80 1015.99 1016.12 1016.20 1016.29 1016.38 1016.51 1016.67 1016.85 1017.03 1017.19 1017.29 1017.33 1017.31 1017.23 1017.11 1016.97 1016.82 1016.69 1016.59 1016.53 1016.53 1016.58 1016.70 1016.89 1017.13 1017.43 1017.75
1009.40 1009.91 1010.43 1010.93 1011.39 1011.81 1012.21 1012.60 1012.99 1013.40 1013.83 1014.27 1014.69 1015.08 1015.41 1015.68 1015.88 1016.03 1016.15 1016.27 1016.41 1016.56 1016.74 1016.93 1017.11 1017.25 1017.34 1017.36 1017.32 1017.23 1017.11 1016.96 1016.81 1016.67 1016.56 1016.49 1016.47 1016.49 1016.57 1016.71 1016.89 1017.12 1017.36
1009.58 1010.03 1010.48 1010.92 1011.34 1011.73 1012.12 1012.51 1012.91 1013.34 1013.78 1014.23 1014.65 1015.04 1015.37 1015.65 1015.86 1016.04 1016.20 1016.35 1016.52 1016.70 1016.89 1017.08 1017.24 1017.36 1017.42 1017.42 1017.37 1017.28 1017.16 1017.03 1016.89 1016.77 1016.68 1016.60 1016.56 1016.56 1016.59 1016.66 1016.76 1016.89 1017.03
1010.00 1010.34 1010.69 1011.03 1011.37 1011.71 1012.07 1012.46 1012.89 1013.34 1013.81 1014.28 1014.73 1015.13 1015.47 1015.76 1016.00 1016.20 1016.38 1016.55 1016.74 1016.92 1017.11 1017.27 1017.41 1017.50 1017.53 1017.51 1017.45 1017.37 1017.27 1017.16 1017.07 1016.98 1016.91 1016.86 1016.81 1016.78 1016.77 1016.76 1016.77 1016.80 1016.83
1010.58 1010.77 1010.97 1011.18 1011.43 1011.71 1012.05 1012.45 1012.91 1013.42 1013.95 1014.47 1014.96 1015.39 1015.76 1016.06 1016.31 1016.53 1016.72 1016.90 1017.08 1017.25 1017.41 1017.54 1017.63 1017.68 1017.68 1017.64 1017.58 1017.51 1017.43 1017.37 1017.32 1017.29 1017.26 1017.24 1017.20 1017.15 1017.09 1017.02 1016.95 1016.87 1016.81
1011.22 1011.24 1011.27 1011.34 1011.48 1011.71 1012.03 1012.47 1012.99 1013.57 1014.19 1014.79 1015.34 1015.83 1016.24 1016.57 1016.84 1017.05 1017.23 1017.40 1017.56 1017.70 1017.81 1017.90 1017.95 1017.95 1017.91 1017.86 1017.79 1017.73 1017.69 1017.68 1017.68 1017.70 1017.72 1017.72 1017.70 1017.64 1017.55 1017.42 1017.28 1017.13 1017.00
1011.85 1011.69 1011.56 1011.49 1011.53 1011.71 1012.04 1012.52 1013.12 1013.81 1014.53 1015.24 1015.88 1016.44 1016.90 1017.26 1017.54 1017.75 1017.92 1018.06 1018.18 1018.27 1018.34 1018.37 1018.37 1018.34 1018.28 1018.21 1018.14 1018.10 1018.09 1018.11 1018.16 1018.22 1018.28 1018.30 1018.28 1018.22 1018.10 1017.94 1017.75 1017.55 1017.37
1012.44 1012.13 1011.85 1011.66 1011.63 1011.77 1012.11 1012.65 1013.34 1014.14 1014.98 1015.80 1016.55 1017.19 1017.71 1018.10 1018.39 1018.60 1018.74 1018.85 1018.92 1018.97 1019.00 1018.99 1018.95 1018.89 1018.81 1018.73 1018.67 1018.64 1018.65 1018.70 1018.77 1018.85 1018.92 1018.95 1018.93 1018.85 1018.71 1018.52 1018.30 1018.08 1017.88
1013.04 1012.62 1012.23 1011.96 1011.86 1011.98 1012.34 1012.93 1013.70 1014.60 1015.55 1016.47 1017.31 1018.03 1018.59 1019.02 1019.32 1019.52 1019.65 1019.72 1019.76 1019.78 1019.77 1019.73 1019.68 1019.60 1019.52 1019.44 1019.38 1019.36 1019.38 1019.43 1019.51 1019.58 1019.64 1019.65 1019.60 1019.49 1019.32 1019.11 1018.87 1018.63 1018.43
1013.76 1013.27 1012.82 1012.49 1012.36 1012.46 1012.83 1013.45 1014.27 1015.23 1016.24 1017.23 1018.13 1018.90 1019.51 1019.95 1020.26 1020.46 1020.57 1020.62 1020.64 1020.63 1020.61 1020.57 1020.51 1020.44 1020.36 1020.29 1020.25 1020.23 1020.24 1020.27 1020.32 1020.37 1020.38 1020.35 1020.26 1020.11 1019.90 1019.66 1019.39 1019.14 1018.94
1014.65 1014.16 1013.70 1013.36 1013.20 1013.29 1013.65 1014.26 1015.08 1016.05 1017.07 1018.08 1019.00 1019.78 1020.39 1020.84 1021.15 1021.34 1021.44 1021.48 1021.49 1021.48 1021.46 1021.42 1021.38 1021.32 1021.27 1021.22 1021.18 1021.15 1021.15 1021.16 1021.17 1021.16 1021.12 1021.03 1020.89 1020.68 1020.43 1020.15 1019.86 1019.58 1019.36
Thickness
5801 5802 5801 5799 5799 5798 5796 5794 5792 5790 5787 5785 5783 5781 5779 5777 5775 5773 5771 5769 5767 5765 5763 5761 5758 5756 5755 5753 5752 5751 5750 5748 5746 5744 5743 5741 5740 5739 5737 5736 5734 5732 5730
5809 5803 5800 5799 5797 5796 5794 5792 5789 5787 5785 5782 5780 5778 5776 5774 5772 5770 5768 5766 5764 5762 5760 5758 5756 5754 5752 5750 5749 5748 5746 5744 5743 5741 5740 5739 5738 5736 5735 5733 5731 5729 5727
5809 5804 5800 5798 5796 5794 5792 5789 5787 5784 5782 5779 5777 5775 5773 5771 5769 5767 5765 5763 5761 5759 5757 5755 5754 5752 5750 5748 5746 5745 5743 5741 5740 5738 5737 5736 5735 5734 5732 5730 5728 5726 5724
5809 5803 5800 5797 5794 5792 5789 5787 5784 5781 5779 5776 5774 5772 5770 5767 5766 5764 5762 5760 5759 5757 5755 5753 5751 5750 5748 5746 5744 5742 5741 5739 5737 5736 5734 5734 5733 5731 5729 5727 5725 5723 5722
5806 5801 5798 5795 5792 5789 5786 5784 5781 5778 5776 5773 5771 5769 5767 5765 5763 5761 5760 5758 5756 5755 5753 5751 5749 5748 5746 5745 5743 5741 5739 5737 5736 5734 5733 5731 5730 5729 5727 5725 5723 5721 5719
5802 5799 5796 5793 5790 5787 5784 5781 5778 5776 5773 5771 5768 5766 5764 5762 5760 5759 5758 5756 5754 5753 5751 5749 5747 5746 5745 5743 5742 5740 5738 5736 5734 5733 5732 5730 5728 5727 5725 5724 5722 5720 5718
5799 5796 5793 5790 5787 5783 5781 5778 5775 5773 5770 5768 5766 5763 5761 5759 5758 5756 5755 5754 5753 5751 5749 5747 5746 5744 5743 5742 5740 5739 5737 5735 5734 5733 5731 5729 5727 5726 5724 5722 5720 5718 5716
5797 5793 5789 5786 5783 5780 5777 5775 5772 5770 5768 5765 5763 5761 5759 5757 5755 5754 5753 5752 5751 5749 5747 5746 5744 5743 5742 5741 5739 5738 5736 5735 5734 5732 5730 5728 5726 5724 5723 5721 5718 5716 5715
5792 5789 5785 5782 5779 5777 5774 5772 5769 5767 5764 5762 5760 5758 5756 5755 5753 5752 5751 5750 5749 5747 5746 5744 5743 5742 5741 5740 5738 5737 5735 5734 5732 5731 5729 5727 5726 5724 5722 5720 5717 5715 5713
5787 5784 5781 5778 5776 5773 5770 5768 5766 5763 5761 5759 5757 5755 5754 5752 5751 5750 5749 5748 5747 5746 5744 5743 5742 5740 5739 5739 5737 5736 5735 5733 5731 5730 5728 5726 5724 5723 5721 5718 5716 5714 5712
5782 5780 5778 5775 5772 5769 5767 5764 5762 5760 5758 5756 5754 5753 5751 5750 5748 5748 5747 5746 5746 5744 5743 5742 5740 5739 5738 5737 5736 5735 5734 5732 5730 5729 5728 5726 5724 5722 5719 5717 5715 5713 5711
5775 5775 5774 5772 5769 5766 5764 5761 5759 5757 5755 5753 5752 5750 5749 5747 5746 5745 5745 5744 5744 5743 5741 5740 5739 5738 5737 5736 5736 5735 5733 5731 5729 5728 5727 5725 5723 5720 5718 5716 5713 5711 5709
5775 5773 5770 5768 5766 5764 5762 5758 5756 5754 5752 5751 5749 5748 5746 5745 5743 5743 5742 5742 5741 5740 5739 5738 5737 5736 5735 5735 5734 5733 5731 5729 5728 5727 5726 5724 5722 5719 5716 5713 5711 5709 5707
5771 5770 5768 5765 5763 5762 5759 5756 5754 5752 5750 5748 5747 5746 5744 5743 5741 5740 5740 5740 5739 5738 5737 5736 5734 5734 5733 5733 5732 5730 5729 5728 5726 5725 5724 5723 5720 5717 5714 5710 5708 5706 5705
5768 5767 5765 5764 5761 5759 5757 5755 5752 5750 5748 5747 5746 5744 5743 5742 5741 5739 5738 5737 5737 5736 5735 5734 5732 5731 5730 5730 5729 5728 5726 5725 5723 5722 5720 5719 5717 5714 5711 5708 5705 5703 5701
5770 5768 5765 5762 5761 5759 5756 5754 5752 5749 5747 5746 5744 5743 5742 5741 5740 5738 5736 5735 5734 5733 5732 5731 5730 5728 5727 5726 5725 5724 5722 5721 5719 5717 5715 5713 5712 5709 5707 5704 5701 5699 5697
5769 5768 5765 5760 5759 5758 5756 5753 5751 5747 5745 5743 5742 5741 5740 5740 5738 5736 5734 5732 5732 5731 5729 5728 5726 5725 5723 5721 5719 5719 5717 5715 5713 5711 5709 5708 5706 5704 5702 5700 5697 5695 5693
5763 5762 5761 5758 5754 5754 5754 5752 5749 5745 5742 5740 5739 5738 5737 5736 5735 5733 5731 5729 5728 5727 5725 5724 5722 5719 5717 5715 5713 5712 5710 5708 5706 5705 5703 5701 5700 5697 5695 5694 5691 5688 5686
5755 5753 5752 5752 5749 5748 5747 5746 5745 5741 5737 5735 5734 5734 5733 5732 5730 5728 5726 5725 5724 5722 5720 5719 5716 5713 5710 5708 5707 5704 5702 5700 5698 5697 5695 5693 5692 5690 5688 5686 5684 5681 5679
5746 5743 5743 5745 5743 5742 5739 5737 5735 5732 5730 5728 5726 5725 5724 5724 5723 5722 5720 5718 5717 5715 5713 5711 5709 5707 5703 5701 5700 5696 5693 5691 5689 5687 5686 5684 5683 5681 5680 5677 5675 5673 5670
5737 5738 5735 5732 5733 5733 5732 5729 5725 5722 5720 5718 5716 5715 5714 5714 5713 5713 5711 5710 5709 5706 5705 5703 5701 5698 5695 5693 5690 5685 5683 5682 5680 5677 5676 5675 5673 5671 5670 5668 5665 5663 5660
5727 5727 5723 5723 5727 5727 5727 5724 5719 5715 5711 5708 5706 5705 5704 5704 5704 5702 5701 5700 5699 5697 5695 5694 5693 5690 5686 5684 5681 5676 5672 5669 5668 5666 5665 5664 5662 5660 5658 5656 5654 5652 5649
5718 5720 5717 5716 5719 5719 5719 5716 5711 5706 5701 5697 5694 5694 5692 5693 5693 5692 5691 5689 5689 5688 5685 5684 5684 5682 5677 5674 5673 5670 5665 5660 5657 5655 5653 5652 5650 5648 5646 5644 5642 5640 5638
5708 5709 5709 5708 5710 5711 5711 5709 5704 5698 5691 5685 5682 5681 5680 5681 5681 5680 5680 5679 5678 5676 5675 5674 5673 5672 5670 5665 5662 5659 5656 5653 5648 5644 5641 5639 5638 5636 5633 5632 5629 5627 5624
5696 5698 5699 5700 5700 5701 5700 5698 5694 5688 5682 5676 5672 5671 5670 5670 5669 5669 5669 5668 5666 5664 5664 5663 5661 5660 5657 5654 5650 5647 5644 5641 5638 5634 5628 5625 5624 5622 5620 5618 5616 5613 5609
5685 5686 5689 5690 5688 5688 5688 5687 5684 5678 5673 5668 5663 5661 5659 5657 5656 5656 5656 5655 5654 5652 5651 5650 5648 5646 5643 5640 5637 5634 5630 5626 5622 5619 5615 5611 5609 5607 5606 5604 5601 5599 5595